23-08-2022, 00:00:08,    179,    0.0,   15.7,   0.00,   0.00, 1009.7,   98.7, -999.0
23-08-2022, 00:00:17,    179,    0.0,   15.7,   0.00,   0.00, 1009.7,   98.7, -999.0
23-08-2022, 00:00:28,    179,    0.0,   15.7,   0.00,   0.00, 1009.7,   98.7, -999.0
23-08-2022, 00:00:37,    179,    0.0,   15.6,   0.00,   0.00, 1009.7,   98.8, -999.0
23-08-2022, 00:00:47,    179,    0.2,   15.6,   0.00,   0.00, 1009.7,   98.8, -999.0
23-08-2022, 00:00:57,    179,    0.5,   15.7,   0.00,   0.00, 1009.8,   99.0, -999.0
23-08-2022, 00:01:07,    174,    0.0,   15.6,   0.00,   0.00, 1009.7,   98.8, -999.0
23-08-2022, 00:01:17,    179,    0.0,   15.6,   0.00,   0.00, 1009.7,   98.7, -999.0
23-08-2022, 00:01:27,    180,    0.0,   15.6,   0.00,   0.00, 1009.8,   98.9, -999.0
23-08-2022, 00:01:37,    179,    0.0,   15.6,   0.00,   0.00, 1009.7,   98.8, -999.0
23-08-2022, 00:01:47,    179,    0.0,   15.6,   0.00,   0.00, 1009.7,   98.7, -999.0
23-08-2022, 00:01:57,    179,    0.0,   15.6,   0.00,   0.00, 1009.7,   98.6, -999.0
23-08-2022, 00:02:07,    179,    0.0,   15.6,   0.00,   0.00, 1009.8,   98.8, -999.0
23-08-2022, 00:02:17,    182,    0.0,   15.6,   0.00,   0.00, 1009.8,   98.7, -999.0
23-08-2022, 00:02:27,    197,    0.0,   15.6,   0.00,   0.00, 1009.7,   98.7, -999.0
23-08-2022, 00:02:37,    197,    0.0,   15.6,   0.00,   0.00, 1009.7,   98.7, -999.0
23-08-2022, 00:02:47,    200,    0.0,   15.6,   0.00,   0.00, 1009.8,   98.9, -999.0
23-08-2022, 00:02:57,    200,    0.1,   15.6,   0.00,   0.00, 1009.8,   98.9, -999.0
23-08-2022, 00:03:07,    200,    0.0,   15.5,   0.00,   0.00, 1009.8,   98.7, -999.0
23-08-2022, 00:03:16,    206,    0.0,   15.4,   0.00,   0.00, 1009.8,   98.8, -999.0
23-08-2022, 00:03:26,    205,    0.0,   15.5,   0.00,   0.00, 1009.8,   98.7, -999.0
23-08-2022, 00:03:37,    206,    0.0,   15.6,   0.00,   0.00, 1009.8,   98.7, -999.0
23-08-2022, 00:03:46,    206,    0.0,   15.6,   0.00,   0.00, 1009.8,   98.7, -999.0
23-08-2022, 00:03:56,    206,    0.0,   15.5,   0.00,   0.00, 1009.8,   98.7, -999.0
23-08-2022, 00:04:06,    205,    0.0,   15.5,   0.00,   0.00, 1009.8,   98.7, -999.0
23-08-2022, 00:04:16,    212,    0.1,   15.6,   0.00,   0.00, 1009.8,   98.8, -999.0
23-08-2022, 00:04:26,    211,    0.0,   15.5,   0.00,   0.00, 1009.8,   98.8, -999.0
23-08-2022, 00:04:36,    211,    0.0,   15.5,   0.00,   0.00, 1009.7,   98.7, -999.0
23-08-2022, 00:04:46,    211,    0.0,   15.6,   0.00,   0.00, 1009.8,   98.8, -999.0
23-08-2022, 00:04:56,    211,    0.0,   15.5,   0.00,   0.00, 1009.7,   98.6, -999.0
23-08-2022, 00:05:06,    211,    0.0,   15.5,   0.00,   0.00, 1009.7,   98.8, -999.0
23-08-2022, 00:05:16,    211,    0.0,   15.5,   0.00,   0.00, 1009.8,   98.7, -999.0
23-08-2022, 00:05:26,    211,    0.0,   15.5,   0.00,   0.00, 1009.7,   98.7, -999.0
23-08-2022, 00:05:36,    211,    0.0,   15.5,   0.00,   0.00, 1009.7,   98.7, -999.0
23-08-2022, 00:05:46,    210,    0.0,   15.6,   0.00,   0.00, 1009.7,   98.7, -999.0
23-08-2022, 00:05:55,    198,    0.0,   15.6,   0.00,   0.00, 1009.8,   98.8, -999.0
23-08-2022, 00:06:06,    198,    0.0,   15.6,   0.00,   0.00, 1009.7,   98.8, -999.0
23-08-2022, 00:06:16,    198,    0.0,   15.6,   0.00,   0.00, 1009.7,   98.7, -999.0
23-08-2022, 00:06:25,    198,    0.0,   15.6,   0.00,   0.00, 1009.8,   98.7, -999.0
23-08-2022, 00:06:35,    198,    0.0,   15.6,   0.00,   0.00, 1009.8,   98.6, -999.0
23-08-2022, 00:06:46,    198,    0.0,   15.6,   0.00,   0.00, 1009.7,   98.6, -999.0
23-08-2022, 00:06:55,    198,    0.0,   15.6,   0.00,   0.00, 1009.8,   98.7, -999.0
23-08-2022, 00:07:05,    199,    0.0,   15.5,   0.00,   0.00, 1009.7,   98.7, -999.0
23-08-2022, 00:07:15,    197,    0.0,   15.5,   0.00,   0.00, 1009.7,   98.7, -999.0
23-08-2022, 00:07:25,    198,    0.0,   15.6,   0.00,   0.00, 1009.7,   98.7, -999.0
23-08-2022, 00:07:35,    198,    0.0,   15.6,   0.00,   0.00, 1009.7,   98.6, -999.0
23-08-2022, 00:07:45,    198,    0.0,   15.5,   0.00,   0.00, 1009.7,   98.7, -999.0
23-08-2022, 00:07:55,    198,    0.0,   15.6,   0.00,   0.00, 1009.7,   98.7, -999.0
23-08-2022, 00:08:05,    198,    0.0,   15.5,   0.00,   0.00, 1009.7,   98.8, -999.0
23-08-2022, 00:08:15,    199,    0.0,   15.6,   0.00,   0.00, 1009.7,   98.8, -999.0
23-08-2022, 00:08:25,    198,    0.0,   15.6,   0.00,   0.00, 1009.8,   98.7, -999.0
23-08-2022, 00:08:35,    198,    0.0,   15.5,   0.00,   0.00, 1009.7,   98.7, -999.0
23-08-2022, 00:08:45,    198,    0.0,   15.6,   0.00,   0.00, 1009.8,   98.8, -999.0
23-08-2022, 00:08:55,    198,    0.0,   15.6,   0.00,   0.00, 1009.7,   98.7, -999.0
23-08-2022, 00:09:05,    198,    0.0,   15.6,   0.00,   0.00, 1009.7,   98.6, -999.0
23-08-2022, 00:09:15,    198,    0.0,   15.6,   0.00,   0.00, 1009.7,   98.7, -999.0
23-08-2022, 00:09:25,    198,    0.0,   15.7,   0.00,   0.00, 1009.7,   98.7, -999.0
23-08-2022, 00:09:34,    198,    0.0,   15.6,   0.00,   0.00, 1009.7,   98.7, -999.0
23-08-2022, 00:09:45,    199,    0.0,   15.6,   0.00,   0.00, 1009.7,   98.7, -999.0
23-08-2022, 00:09:54,    198,    0.0,   15.7,   0.00,   0.00, 1009.7,   98.8, -999.0
23-08-2022, 00:10:04,    198,    0.0,   15.7,   0.00,   0.00, 1009.7,   98.7, -999.0
23-08-2022, 00:10:14,    198,    0.0,   15.8,   0.00,   0.00, 1009.7,   98.8, -999.0
23-08-2022, 00:10:24,    198,    0.0,   15.7,   0.00,   0.00, 1009.7,   98.7, -999.0
23-08-2022, 00:10:34,    198,    0.0,   15.7,   0.00,   0.00, 1009.7,   98.7, -999.0
23-08-2022, 00:10:44,    198,    0.0,   15.7,   0.00,   0.00, 1009.7,   98.7, -999.0
23-08-2022, 00:10:54,    198,    0.0,   15.7,   0.00,   0.00, 1009.8,   98.7, -999.0
23-08-2022, 00:11:04,    198,    0.0,   15.7,   0.00,   0.00, 1009.7,   98.6, -999.0
23-08-2022, 00:11:14,    198,    0.0,   15.7,   0.00,   0.00, 1009.8,   98.8, -999.0
23-08-2022, 00:11:24,    198,    0.3,   15.7,   0.00,   0.00, 1009.8,   99.0, -999.0
23-08-2022, 00:11:34,    198,    0.0,   15.6,   0.00,   0.00, 1009.8,   98.7, -999.0
23-08-2022, 00:11:44,    217,    0.0,   15.6,   0.00,   0.00, 1009.7,   98.6, -999.0
23-08-2022, 00:11:54,    217,    0.0,   15.5,   0.00,   0.00, 1009.7,   98.6, -999.0
23-08-2022, 00:12:04,    217,    0.0,   15.6,   0.00,   0.00, 1009.7,   98.7, -999.0
23-08-2022, 00:12:14,    217,    0.0,   15.6,   0.00,   0.00, 1009.7,   98.7, -999.0
23-08-2022, 00:12:24,    217,    0.0,   15.6,   0.00,   0.00, 1009.7,   98.7, -999.0
23-08-2022, 00:12:33,    217,    0.0,   15.7,   0.00,   0.00, 1009.7,   98.7, -999.0
23-08-2022, 00:12:43,    217,    0.0,   15.7,   0.00,   0.00, 1009.7,   98.7, -999.0
23-08-2022, 00:12:54,    217,    0.0,   15.7,   0.00,   0.00, 1009.8,   98.7, -999.0
23-08-2022, 00:13:03,    217,    0.0,   15.7,   0.00,   0.00, 1009.8,   98.7, -999.0
23-08-2022, 00:13:13,    217,    0.0,   15.6,   0.00,   0.00, 1009.8,   98.7, -999.0
23-08-2022, 00:13:23,    217,    0.0,   15.6,   0.00,   0.00, 1009.7,   98.8, -999.0
23-08-2022, 00:13:33,    213,    0.0,   15.7,   0.00,   0.00, 1009.7,   98.7, -999.0
23-08-2022, 00:13:43,    213,    0.0,   15.6,   0.00,   0.00, 1009.8,   98.7, -999.0
23-08-2022, 00:13:53,    213,    0.0,   15.7,   0.00,   0.00, 1009.7,   98.7, -999.0
23-08-2022, 00:14:03,    213,    0.0,   15.7,   0.00,   0.00, 1009.7,   98.8, -999.0
23-08-2022, 00:14:13,    213,    0.0,   15.7,   0.00,   0.00, 1009.8,   98.7, -999.0
23-08-2022, 00:14:23,    205,    0.1,   15.7,   0.00,   0.00, 1009.8,   98.8, -999.0
23-08-2022, 00:14:33,    205,    0.0,   15.6,   0.00,   0.00, 1009.8,   98.7, -999.0
23-08-2022, 00:14:43,    205,    0.0,   15.6,   0.00,   0.00, 1009.8,   98.7, -999.0
23-08-2022, 00:14:53,    205,    0.0,   15.7,   0.00,   0.00, 1009.8,   98.7, -999.0
23-08-2022, 00:15:03,    205,    0.0,   15.7,   0.00,   0.00, 1009.8,   98.7, -999.0
23-08-2022, 00:15:12,    205,    0.0,   15.7,   0.00,   0.00, 1009.8,   98.6, -999.0
23-08-2022, 00:15:23,    205,    0.0,   15.6,   0.00,   0.00, 1009.8,   98.7, -999.0
23-08-2022, 00:15:33,    205,    0.0,   15.7,   0.00,   0.00, 1009.7,   98.7, -999.0
23-08-2022, 00:15:42,    205,    0.0,   15.6,   0.00,   0.00, 1009.8,   98.6, -999.0
23-08-2022, 00:15:52,    205,    0.0,   15.7,   0.00,   0.00, 1009.7,   98.7, -999.0
23-08-2022, 00:16:03,    205,    0.0,   15.6,   0.00,   0.00, 1009.8,   98.6, -999.0
23-08-2022, 00:16:12,    205,    0.0,   15.6,   0.00,   0.00, 1009.8,   98.7, -999.0
23-08-2022, 00:16:22,    205,    0.0,   15.7,   0.00,   0.00, 1009.8,   98.6, -999.0
23-08-2022, 00:16:32,    205,    0.0,   15.6,   0.00,   0.00, 1009.8,   98.8, -999.0
23-08-2022, 00:16:42,    205,    0.0,   15.6,   0.00,   0.00, 1009.8,   98.8, -999.0
23-08-2022, 00:16:52,    205,    0.0,   15.7,   0.00,   0.00, 1009.8,   98.7, -999.0
23-08-2022, 00:17:02,    205,    0.0,   15.7,   0.00,   0.00, 1009.8,   98.7, -999.0
23-08-2022, 00:17:12,    205,    0.0,   15.7,   0.00,   0.00, 1009.8,   98.8, -999.0
23-08-2022, 00:17:22,    205,    0.0,   15.7,   0.00,   0.00, 1009.8,   98.7, -999.0
23-08-2022, 00:17:32,    205,    0.0,   15.7,   0.00,   0.00, 1009.8,   98.8, -999.0
23-08-2022, 00:17:42,    205,    0.0,   15.6,   0.00,   0.00, 1009.8,   98.8, -999.0
23-08-2022, 00:17:52,    205,    0.0,   15.7,   0.00,   0.00, 1009.8,   98.7, -999.0
23-08-2022, 00:18:02,    205,    0.0,   15.6,   0.00,   0.00, 1009.8,   98.8, -999.0
23-08-2022, 00:18:12,    205,    0.0,   15.6,   0.00,   0.00, 1009.8,   98.7, -999.0
23-08-2022, 00:18:21,    205,    0.0,   15.6,   0.00,   0.00, 1009.8,   98.7, -999.0
23-08-2022, 00:18:32,    205,    0.0,   15.6,   0.00,   0.00, 1009.8,   98.6, -999.0
23-08-2022, 00:18:42,    205,    0.0,   15.5,   0.00,   0.00, 1009.8,   98.7, -999.0
23-08-2022, 00:18:51,    205,    0.0,   15.5,   0.00,   0.00, 1009.8,   98.8, -999.0
23-08-2022, 00:19:02,    205,    0.0,   15.5,   0.00,   0.00, 1009.8,   98.8, -999.0
23-08-2022, 00:19:11,    205,    0.0,   15.6,   0.00,   0.00, 1009.8,   98.7, -999.0
23-08-2022, 00:19:21,    205,    0.0,   15.6,   0.00,   0.00, 1009.8,   98.7, -999.0
23-08-2022, 00:19:31,    205,    0.0,   15.5,   0.00,   0.00, 1009.8,   98.7, -999.0
23-08-2022, 00:19:41,    205,    0.0,   15.6,   0.00,   0.00, 1009.8,   98.7, -999.0
23-08-2022, 00:19:51,    202,    0.0,   15.7,   0.00,   0.00, 1009.8,   98.7, -999.0
23-08-2022, 00:20:01,    205,    0.0,   15.6,   0.00,   0.00, 1009.7,   98.7, -999.0
23-08-2022, 00:20:11,    205,    0.0,   15.6,   0.00,   0.00, 1009.7,   98.8, -999.0
23-08-2022, 00:20:21,    205,    0.0,   15.6,   0.00,   0.00, 1009.7,   98.7, -999.0
23-08-2022, 00:20:31,    204,    0.0,   15.6,   0.00,   0.00, 1009.7,   98.7, -999.0
23-08-2022, 00:20:41,    205,    0.0,   15.6,   0.00,   0.00, 1009.8,   98.7, -999.0
23-08-2022, 00:20:51,    205,    0.0,   15.6,   0.00,   0.00, 1009.8,   98.8, -999.0
23-08-2022, 00:21:01,    205,    0.0,   15.5,   0.00,   0.00, 1009.7,   98.7, -999.0
23-08-2022, 00:21:11,    205,    0.0,   15.6,   0.00,   0.00, 1009.7,   98.8, -999.0
23-08-2022, 00:21:21,    205,    0.0,   15.6,   0.00,   0.00, 1009.7,   98.7, -999.0
23-08-2022, 00:21:31,    205,    0.0,   15.6,   0.00,   0.00, 1009.7,   98.7, -999.0
23-08-2022, 00:21:41,    204,    0.0,   15.5,   0.00,   0.00, 1009.7,   98.6, -999.0
23-08-2022, 00:21:50,    205,    0.0,   15.6,   0.00,   0.00, 1009.8,   98.8, -999.0
23-08-2022, 00:22:00,    205,    0.0,   15.6,   0.00,   0.00, 1009.7,   98.7, -999.0
23-08-2022, 00:22:11,    205,    0.0,   15.5,   0.00,   0.00, 1009.7,   98.7, -999.0
23-08-2022, 00:22:20,    204,    0.0,   15.5,   0.00,   0.00, 1009.7,   98.7, -999.0
23-08-2022, 00:22:30,    205,    0.0,   15.6,   0.00,   0.00, 1009.7,   98.7, -999.0
23-08-2022, 00:22:40,    205,    0.0,   15.6,   0.00,   0.00, 1009.7,   98.7, -999.0
23-08-2022, 00:22:50,    205,    0.0,   15.5,   0.00,   0.00, 1009.7,   98.7, -999.0
23-08-2022, 00:23:00,    205,    0.0,   15.6,   0.00,   0.00, 1009.7,   98.7, -999.0
23-08-2022, 00:23:10,    205,    0.0,   15.6,   0.00,   0.00, 1009.7,   98.8, -999.0
23-08-2022, 00:23:20,    205,    0.0,   15.5,   0.00,   0.00, 1009.7,   98.7, -999.0
23-08-2022, 00:23:30,    205,    0.0,   15.6,   0.00,   0.00, 1009.7,   98.7, -999.0
23-08-2022, 00:23:40,    205,    0.0,   15.6,   0.00,   0.00, 1009.7,   98.7, -999.0
23-08-2022, 00:23:50,    205,    0.0,   15.5,   0.00,   0.00, 1009.7,   98.8, -999.0
23-08-2022, 00:24:00,    204,    0.0,   15.6,   0.00,   0.00, 1009.7,   98.7, -999.0
23-08-2022, 00:24:10,    205,    0.0,   15.6,   0.00,   0.00, 1009.7,   98.7, -999.0
23-08-2022, 00:24:20,    205,    0.0,   15.6,   0.00,   0.00, 1009.7,   98.8, -999.0
23-08-2022, 00:24:29,    204,    0.0,   15.6,   0.00,   0.00, 1009.7,   98.7, -999.0
23-08-2022, 00:24:40,    205,    0.0,   15.6,   0.00,   0.00, 1009.7,   98.8, -999.0
23-08-2022, 00:24:50,    205,    0.0,   15.6,   0.00,   0.00, 1009.7,   98.7, -999.0
23-08-2022, 00:24:59,    204,    0.0,   15.7,   0.00,   0.00, 1009.7,   98.7, -999.0
23-08-2022, 00:25:09,    205,    0.0,   15.7,   0.00,   0.00, 1009.7,   98.7, -999.0
23-08-2022, 00:25:20,    205,    0.0,   15.6,   0.00,   0.00, 1009.8,   98.7, -999.0
23-08-2022, 00:25:29,    205,    0.0,   15.6,   0.00,   0.00, 1009.7,   98.7, -999.0
23-08-2022, 00:25:39,    205,    0.0,   15.7,   0.00,   0.00, 1009.7,   98.7, -999.0
23-08-2022, 00:25:49,    205,    0.0,   15.6,   0.00,   0.00, 1009.7,   98.7, -999.0
23-08-2022, 00:25:59,    205,    0.0,   15.6,   0.00,   0.00, 1009.7,   98.8, -999.0
23-08-2022, 00:26:09,    205,    0.0,   15.6,   0.00,   0.00, 1009.7,   98.6, -999.0
23-08-2022, 00:26:19,    205,    0.0,   15.6,   0.00,   0.00, 1009.7,   98.7, -999.0
23-08-2022, 00:26:29,    205,    0.0,   15.5,   0.00,   0.00, 1009.7,   98.7, -999.0
23-08-2022, 00:26:39,    205,    0.0,   15.6,   0.00,   0.00, 1009.7,   98.6, -999.0
23-08-2022, 00:26:49,    205,    0.0,   15.6,   0.00,   0.00, 1009.7,   98.7, -999.0
23-08-2022, 00:26:59,    205,    0.0,   15.6,   0.00,   0.00, 1009.7,   98.8, -999.0
23-08-2022, 00:27:09,    204,    0.0,   15.6,   0.00,   0.00, 1009.7,   98.7, -999.0
23-08-2022, 00:27:19,    204,    0.0,   15.6,   0.00,   0.00, 1009.7,   98.7, -999.0
23-08-2022, 00:27:29,    204,    0.0,   15.6,   0.00,   0.00, 1009.7,   98.6, -999.0
23-08-2022, 00:27:38,    205,    0.0,   15.6,   0.00,   0.00, 1009.7,   98.7, -999.0
23-08-2022, 00:27:49,    205,    0.0,   15.5,   0.00,   0.00, 1009.7,   98.8, -999.0
23-08-2022, 00:27:59,    205,    0.0,   15.6,   0.00,   0.00, 1009.7,   98.7, -999.0
23-08-2022, 00:28:08,    205,    0.0,   15.7,   0.00,   0.00, 1009.7,   98.6, -999.0
23-08-2022, 00:28:19,    204,    0.0,   15.7,   0.00,   0.00, 1009.7,   98.6, -999.0
23-08-2022, 00:28:28,    204,    0.0,   15.7,   0.00,   0.00, 1009.7,   98.8, -999.0
23-08-2022, 00:28:38,    204,    0.0,   15.7,   0.00,   0.00, 1009.7,   98.8, -999.0
23-08-2022, 00:28:48,    204,    0.0,   15.7,   0.00,   0.00, 1009.7,   98.7, -999.0
23-08-2022, 00:28:58,    204,    0.0,   15.7,   0.00,   0.00, 1009.8,   98.7, -999.0
23-08-2022, 00:29:08,    205,    0.0,   15.7,   0.00,   0.00, 1009.8,   98.7, -999.0
23-08-2022, 00:29:18,    205,    0.0,   15.6,   0.00,   0.00, 1009.8,   98.7, -999.0
23-08-2022, 00:29:28,    205,    0.0,   15.7,   0.00,   0.00, 1009.8,   98.7, -999.0
23-08-2022, 00:29:38,    204,    0.0,   15.7,   0.00,   0.00, 1009.8,   98.7, -999.0
23-08-2022, 00:29:48,    205,    0.0,   15.6,   0.00,   0.00, 1009.8,   98.7, -999.0
23-08-2022, 00:29:58,    204,    0.0,   15.6,   0.00,   0.00, 1009.8,   98.7, -999.0
23-08-2022, 00:30:08,    204,    0.0,   15.7,   0.00,   0.00, 1009.8,   98.5, -999.0
23-08-2022, 00:30:18,    204,    0.0,   15.7,   0.00,   0.00, 1009.7,   98.7, -999.0
23-08-2022, 00:30:28,    204,    0.0,   15.7,   0.00,   0.00, 1009.7,   98.6, -999.0
23-08-2022, 00:30:38,    204,    0.0,   15.7,   0.00,   0.00, 1009.7,   98.8, -999.0
23-08-2022, 00:30:48,    205,    0.0,   15.7,   0.00,   0.00, 1009.7,   98.6, -999.0
23-08-2022, 00:30:58,    204,    0.0,   15.7,   0.00,   0.00, 1009.7,   98.6, -999.0
23-08-2022, 00:31:07,    204,    0.0,   15.7,   0.00,   0.00, 1009.7,   98.7, -999.0
23-08-2022, 00:31:17,    204,    0.0,   15.7,   0.00,   0.00, 1009.7,   98.8, -999.0
23-08-2022, 00:31:28,    204,    0.0,   15.7,   0.00,   0.00, 1009.7,   98.6, -999.0
23-08-2022, 00:31:37,    204,    0.0,   15.6,   0.00,   0.00, 1009.7,   98.7, -999.0
23-08-2022, 00:31:47,    204,    0.0,   15.7,   0.00,   0.00, 1009.7,   98.6, -999.0
23-08-2022, 00:31:57,    204,    0.0,   15.7,   0.00,   0.00, 1009.7,   98.7, -999.0
23-08-2022, 00:32:07,    204,    0.0,   15.7,   0.00,   0.00, 1009.7,   98.7, -999.0
23-08-2022, 00:32:17,    204,    0.0,   15.7,   0.00,   0.00, 1009.7,   98.7, -999.0
23-08-2022, 00:32:27,    205,    0.0,   15.6,   0.00,   0.00, 1009.7,   98.7, -999.0
23-08-2022, 00:32:37,    205,    0.0,   15.7,   0.00,   0.00, 1009.7,   98.7, -999.0
23-08-2022, 00:32:47,    204,    0.0,   15.7,   0.00,   0.00, 1009.7,   98.7, -999.0
23-08-2022, 00:32:57,    205,    0.0,   15.7,   0.00,   0.00, 1009.7,   98.8, -999.0
23-08-2022, 00:33:07,    205,    0.0,   15.7,   0.00,   0.00, 1009.7,   98.7, -999.0
23-08-2022, 00:33:17,    205,    0.0,   15.7,   0.00,   0.00, 1009.7,   98.7, -999.0
23-08-2022, 00:33:27,    204,    0.0,   15.7,   0.00,   0.00, 1009.7,   98.8, -999.0
23-08-2022, 00:33:37,    204,    0.0,   15.7,   0.00,   0.00, 1009.7,   98.8, -999.0
23-08-2022, 00:33:46,    205,    0.0,   15.6,   0.00,   0.00, 1009.7,   98.7, -999.0
23-08-2022, 00:33:57,    204,    0.0,   15.6,   0.00,   0.00, 1009.7,   98.8, -999.0
23-08-2022, 00:34:07,    205,    0.0,   15.7,   0.00,   0.00, 1009.7,   98.7, -999.0
23-08-2022, 00:34:16,    204,    0.0,   15.6,   0.00,   0.00, 1009.7,   98.6, -999.0
23-08-2022, 00:34:26,    204,    0.0,   15.6,   0.00,   0.00, 1009.7,   98.7, -999.0
23-08-2022, 00:34:37,    204,    0.0,   15.6,   0.00,   0.00, 1009.7,   98.7, -999.0
23-08-2022, 00:34:46,    204,    0.0,   15.6,   0.00,   0.00, 1009.7,   98.7, -999.0
23-08-2022, 00:34:56,    204,    0.0,   15.7,   0.00,   0.00, 1009.7,   98.7, -999.0
23-08-2022, 00:35:06,    204,    0.0,   15.7,   0.00,   0.00, 1009.7,   98.8, -999.0
23-08-2022, 00:35:16,    204,    0.0,   15.6,   0.00,   0.00, 1009.7,   98.7, -999.0
23-08-2022, 00:35:26,    205,    0.0,   15.7,   0.00,   0.00, 1009.7,   98.6, -999.0
23-08-2022, 00:35:36,    204,    0.0,   15.7,   0.00,   0.00, 1009.7,   98.7, -999.0
23-08-2022, 00:35:46,    204,    0.0,   15.6,   0.00,   0.00, 1009.7,   98.7, -999.0
23-08-2022, 00:35:56,    204,    0.0,   15.7,   0.00,   0.00, 1009.7,   98.7, -999.0
23-08-2022, 00:36:06,    204,    0.0,   15.7,   0.00,   0.00, 1009.7,   98.7, -999.0
23-08-2022, 00:36:16,    204,    0.0,   15.7,   0.00,   0.00, 1009.7,   98.7, -999.0
23-08-2022, 00:36:26,    204,    0.0,   15.7,   0.00,   0.00, 1009.7,   98.7, -999.0
23-08-2022, 00:36:36,    204,    0.0,   15.7,   0.00,   0.00, 1009.8,   98.6, -999.0
23-08-2022, 00:36:46,    204,    0.0,   15.7,   0.00,   0.00, 1009.7,   98.7, -999.0
23-08-2022, 00:36:55,    204,    0.0,   15.7,   0.00,   0.00, 1009.7,   98.7, -999.0
23-08-2022, 00:37:06,    204,    0.0,   15.7,   0.00,   0.00, 1009.7,   98.7, -999.0
23-08-2022, 00:37:15,    205,    0.0,   15.7,   0.00,   0.00, 1009.7,   98.7, -999.0
23-08-2022, 00:37:25,    205,    0.0,   15.7,   0.00,   0.00, 1009.7,   98.6, -999.0
23-08-2022, 00:37:36,    205,    0.0,   15.7,   0.00,   0.00, 1009.7,   98.7, -999.0
23-08-2022, 00:37:45,    204,    0.0,   15.7,   0.00,   0.00, 1009.7,   98.7, -999.0
23-08-2022, 00:37:55,    204,    0.0,   15.6,   0.00,   0.00, 1009.7,   98.7, -999.0
23-08-2022, 00:38:05,    204,    0.0,   15.6,   0.00,   0.00, 1009.7,   98.7, -999.0
23-08-2022, 00:38:15,    205,    0.0,   15.7,   0.00,   0.00, 1009.8,   98.7, -999.0
23-08-2022, 00:38:25,    204,    0.0,   15.6,   0.00,   0.00, 1009.7,   98.7, -999.0
23-08-2022, 00:38:35,    204,    0.0,   15.7,   0.00,   0.00, 1009.7,   98.7, -999.0
23-08-2022, 00:38:45,    205,    0.0,   15.7,   0.00,   0.00, 1009.7,   98.7, -999.0
23-08-2022, 00:38:55,    205,    0.0,   15.7,   0.00,   0.00, 1009.7,   98.8, -999.0
23-08-2022, 00:39:05,    204,    0.0,   15.7,   0.00,   0.00, 1009.7,   98.7, -999.0
23-08-2022, 00:39:15,    137,    0.0,   15.7,   0.00,   0.00, 1009.7,   98.8, -999.0
23-08-2022, 00:39:25,    136,    0.0,   15.7,   0.00,   0.00, 1009.7,   98.7, -999.0
23-08-2022, 00:39:35,    137,    0.0,   15.6,   0.00,   0.00, 1009.7,   98.7, -999.0
23-08-2022, 00:39:45,    137,    0.0,   15.6,   0.00,   0.00, 1009.6,   98.6, -999.0
23-08-2022, 00:39:54,    137,    0.0,   15.7,   0.00,   0.00, 1009.7,   98.6, -999.0
23-08-2022, 00:40:05,    137,    0.0,   15.7,   0.00,   0.00, 1009.6,   98.8, -999.0
23-08-2022, 00:40:15,    137,    0.0,   15.7,   0.00,   0.00, 1009.7,   98.7, -999.0
23-08-2022, 00:40:24,    137,    0.0,   15.7,   0.00,   0.00, 1009.7,   98.7, -999.0
23-08-2022, 00:40:34,    137,    0.0,   15.6,   0.00,   0.00, 1009.6,   98.7, -999.0
23-08-2022, 00:40:45,    137,    0.0,   15.7,   0.00,   0.00, 1009.6,   98.6, -999.0
23-08-2022, 00:40:54,    136,    0.0,   15.7,   0.00,   0.00, 1009.6,   98.7, -999.0
23-08-2022, 00:41:04,    137,    0.0,   15.6,   0.00,   0.00, 1009.6,   98.7, -999.0
23-08-2022, 00:41:14,    137,    0.0,   15.6,   0.00,   0.00, 1009.6,   98.7, -999.0
23-08-2022, 00:41:24,    137,    0.0,   15.7,   0.00,   0.00, 1009.6,   98.7, -999.0
23-08-2022, 00:41:34,    137,    0.0,   15.7,   0.00,   0.00, 1009.6,   98.7, -999.0
23-08-2022, 00:41:44,    137,    0.0,   15.7,   0.00,   0.00, 1009.6,   98.7, -999.0
23-08-2022, 00:41:54,    137,    0.0,   15.7,   0.00,   0.00, 1009.6,   98.7, -999.0
23-08-2022, 00:42:04,    137,    0.0,   15.6,   0.00,   0.00, 1009.6,   98.7, -999.0
23-08-2022, 00:42:14,    136,    0.0,   15.7,   0.00,   0.00, 1009.6,   98.8, -999.0
23-08-2022, 00:42:24,    137,    0.0,   15.7,   0.00,   0.00, 1009.6,   98.6, -999.0
23-08-2022, 00:42:34,    161,    0.0,   15.7,   0.00,   0.00, 1009.6,   98.7, -999.0
23-08-2022, 00:42:44,    161,    0.0,   15.7,   0.00,   0.00, 1009.6,   98.7, -999.0
23-08-2022, 00:42:54,    161,    0.0,   15.7,   0.00,   0.00, 1009.6,   98.7, -999.0
23-08-2022, 00:43:03,    161,    0.0,   15.7,   0.00,   0.00, 1009.6,   98.7, -999.0
23-08-2022, 00:43:14,    161,    0.0,   15.7,   0.00,   0.00, 1009.6,   98.7, -999.0
23-08-2022, 00:43:23,    161,    0.0,   15.7,   0.00,   0.00, 1009.6,   98.7, -999.0
23-08-2022, 00:43:33,    161,    0.0,   15.8,   0.00,   0.00, 1009.6,   98.7, -999.0
23-08-2022, 00:43:44,    161,    0.0,   15.8,   0.00,   0.00, 1009.6,   98.7, -999.0
23-08-2022, 00:43:53,    160,    0.0,   15.7,   0.00,   0.00, 1009.6,   98.6, -999.0
23-08-2022, 00:44:03,    160,    0.0,   15.7,   0.00,   0.00, 1009.6,   98.6, -999.0
23-08-2022, 00:44:13,    160,    0.0,   15.6,   0.00,   0.00, 1009.6,   98.7, -999.0
23-08-2022, 00:44:23,    160,    0.0,   15.7,   0.00,   0.00, 1009.6,   98.7, -999.0
23-08-2022, 00:44:33,    160,    0.0,   15.8,   0.00,   0.00, 1009.6,   98.8, -999.0
23-08-2022, 00:44:43,    160,    0.0,   15.7,   0.00,   0.00, 1009.6,   98.7, -999.0
23-08-2022, 00:44:53,    160,    0.0,   15.7,   0.00,   0.00, 1009.6,   98.7, -999.0
23-08-2022, 00:45:03,    160,    0.0,   15.7,   0.00,   0.00, 1009.6,   98.7, -999.0
23-08-2022, 00:45:13,    158,    0.0,   15.7,   0.00,   0.00, 1009.6,   98.7, -999.0
23-08-2022, 00:45:23,    161,    0.0,   15.7,   0.00,   0.00, 1009.6,   98.7, -999.0
23-08-2022, 00:45:33,    159,    0.0,   15.7,   0.00,   0.00, 1009.6,   98.7, -999.0
23-08-2022, 00:45:43,    159,    0.0,   15.7,   0.00,   0.00, 1009.6,   98.8, -999.0
23-08-2022, 00:45:53,    159,    0.0,   15.6,   0.00,   0.00, 1009.6,   98.7, -999.0
23-08-2022, 00:46:02,    159,    0.0,   15.7,   0.00,   0.00, 1009.6,   98.7, -999.0
23-08-2022, 00:46:13,    159,    0.0,   15.7,   0.00,   0.00, 1009.6,   98.8, -999.0
23-08-2022, 00:46:23,    159,    0.0,   15.8,   0.00,   0.00, 1009.6,   98.7, -999.0
23-08-2022, 00:46:32,    160,    0.0,   15.8,   0.00,   0.00, 1009.6,   98.7, -999.0
23-08-2022, 00:46:42,    159,    0.0,   15.7,   0.00,   0.00, 1009.6,   98.7, -999.0